| time (UTC) | temp C | wind direction | speed KPH | gust KPH | rain 1hr cm | rain 24hr cm | rain mn cm | humidity % | barometer mb |
| 20260502151521 | 4 | 30 | 0.0 | 8.0 | 0.00 | 0.91 | 0.33 | 83 | 1012.1 |
| 20260502123028 | 2 | 37 | 3.2 | 19.3 | 0.03 | 1.37 | 0.33 | 92 | 1011.2 |
| 20260502121517 | 2 | 14 | 1.6 | 6.4 | 0.03 | 1.37 | 0.33 | 93 | 1011.1 |
| 20260502114520 | 2 | 342 | 0.0 | 6.4 | 0.10 | 1.40 | 0.33 | 93 | 1010.9 |
| 20260502113024 | 1 | 67 | 1.6 | 11.3 | 0.08 | 1.37 | 0.30 | 93 | 1010.7 |
| 20260502111525 | 1 | 83 | 0.0 | 4.8 | 0.08 | 1.37 | 0.30 | 93 | 1010.6 |
| 20260502110023 | 2 | 331 | 0.0 | 6.4 | 0.03 | 1.37 | 0.25 | 93 | 1010.4 |
| 20260502104517 | 2 | 287 | 0.0 | 8.0 | 0.00 | 1.35 | 0.23 | 92 | 1010.2 |
| 20260502103017 | 2 | 262 | 1.6 | 6.4 | 0.05 | 1.35 | 0.23 | 92 | 1010.1 |
| 20260502101514 | 2 | 303 | 0.0 | 4.8 | 0.08 | 1.35 | 0.23 | 93 | 1010.0 |
| 20260502091509 | 2 | 51 | 1.6 | 3.2 | 0.00 | 1.27 | 0.15 | 94 | 1009.7 |
| 20260502071516 | 3 | 355 | 0.0 | 3.2 | 0.05 | 1.22 | 0.10 | 93 | 1009.5 |
| 20260502070018 | 3 | 33 | 0.0 | 3.2 | 0.10 | 1.22 | 0.10 | 93 | 1009.6 |
| 20260502064510 | 3 | 61 | 0.0 | 3.2 | 0.10 | 1.22 | 0.10 | 93 | 1009.7 |
| 20260502063014 | 3 | 53 | 4.8 | 8.0 | 0.08 | 1.19 | 0.08 | 93 | 1009.7 |
| 20260502061509 | 3 | 16 | 3.2 | 8.0 | 0.05 | 1.17 | 0.05 | 93 | 1009.8 |
| 20260502060012 | 4 | 28 | 4.8 | 6.4 | 0.00 | 1.12 | 0.00 | 93 | 1010.0 |
| 20260502054533 | 4 | 62 | 0.0 | 3.2 | 0.00 | 1.12 | 0.00 | 93 | 1010.1 |
| 20260502053026 | 4 | 128 | 0.0 | 0.0 | 0.00 | 1.12 | 0.00 | 93 | 1010.2 |
| 20260502051522 | 4 | 128 | 0.0 | 0.0 | 0.00 | 1.12 | 0.00 | 93 | 1010.1 |
| 20260502050022 | 4 | 128 | 0.0 | 0.0 | 0.00 | 1.12 | 0.00 | 93 | 1010.2 |
| 20260502044521 | 4 | 128 | 0.0 | 0.0 | 0.00 | 1.12 | 0.00 | 93 | 1010.2 |
| 20260502043017 | 4 | 128 | 0.0 | 0.0 | 0.00 | 1.12 | 0.00 | 92 | 1010.2 |
| 20260502041517 | 4 | 128 | 0.0 | 0.0 | 0.00 | 1.12 | 0.00 | 92 | 1010.3 |
| 20260502040014 | 4 | 128 | 0.0 | 0.0 | 0.03 | 1.12 | 1.12 | 91 | 1010.3 |
| 20260502034512 | 4 | 173 | 0.0 | 0.0 | 0.13 | 1.12 | 1.12 | 91 | 1010.3 |
| 20260502033010 | 4 | 175 | 0.0 | 3.2 | 0.23 | 1.12 | 1.12 | 90 | 1010.2 |
| 20260502031507 | 4 | 202 | 1.6 | 4.8 | 0.25 | 1.12 | 1.12 | 90 | 1010.3 |
| 20260502030008 | 4 | 235 | 1.6 | 8.0 | 0.23 | 1.09 | 1.09 | 90 | 1010.3 |
| 20260502024525 | 5 | 250 | 4.8 | 9.7 | 0.13 | 0.99 | 0.99 | 87 | 1010.3 |
| 20260502023020 | 5 | 237 | 0.0 | 0.0 | 0.03 | 0.89 | 0.89 | 88 | 1010.1 |
| 20260502021519 | 5 | 215 | 0.0 | 0.0 | 0.00 | 0.86 | 0.86 | 89 | 1009.8 |
| 20260502020018 | 5 | 215 | 0.0 | 0.0 | 0.00 | 0.86 | 0.86 | 91 | 1009.8 |
| 20260502014525 | 5 | 215 | 0.0 | 0.0 | 0.00 | 0.86 | 0.86 | 92 | 1009.6 |
| 20260502013016 | 5 | 251 | 0.0 | 0.0 | 0.00 | 0.86 | 0.86 | 92 | 1009.4 |
| 20260502011556 | 5 | 251 | 0.0 | 0.0 | 0.00 | 0.86 | 0.86 | 91 | 1009.4 |
| 20260502010022 | 5 | 251 | 0.0 | 0.0 | 0.00 | 0.86 | 0.86 | 89 | 1009.3 |
| 20260502004539 | 5 | 251 | 0.0 | 0.0 | 0.00 | 0.86 | 0.86 | 87 | 1009.3 |
| 20260502003019 | 5 | 251 | 0.0 | 0.0 | 0.00 | 0.86 | 0.86 | 85 | 1009.1 |
| 20260502001520 | 5 | 251 | 0.0 | 0.0 | 0.00 | 0.86 | 0.86 | 83 | 1008.9 |
| 20260502000020 | 6 | 251 | 0.0 | 0.0 | 0.00 | 0.86 | 0.86 | 82 | 1008.8 |
| 20260501234525 | 6 | 242 | 0.0 | 0.0 | 0.00 | 0.86 | 0.86 | 79 | 1008.5 |
| 20260501233020 | 6 | 242 | 0.0 | 3.2 | 0.00 | 0.86 | 0.86 | 78 | 1008.6 |
| 20260501231524 | 6 | 246 | 0.0 | 3.2 | 0.00 | 0.86 | 0.86 | 76 | 1008.6 |
| 20260501230020 | 7 | 256 | 1.6 | 4.8 | 0.00 | 0.86 | 0.86 | 73 | 1008.6 |
| 20260501224514 | 7 | 269 | 1.6 | 4.8 | 0.00 | 0.86 | 0.86 | 76 | 1008.5 |
| 20260501223010 | 6 | 51 | 3.2 | 9.7 | 0.00 | 0.86 | 0.86 | 77 | 1008.5 |
| 20260501221553 | 6 | 5 | 3.2 | 6.4 | 0.00 | 0.86 | 0.86 | 77 | 1008.4 |
| 20260501220024 | 7 | 305 | 0.0 | 4.8 | 0.00 | 0.86 | 0.86 | 77 | 1008.4 |
| 20260501214522 | 7 | 9 | 0.0 | 6.4 | 0.00 | 0.86 | 0.86 | 79 | 1008.3 |
| 20260501213017 | 6 | 360 | 3.2 | 9.7 | 0.00 | 0.86 | 0.86 | 78 | 1008.2 |
| 20260501211517 | 6 | 335 | 0.0 | 6.4 | 0.00 | 0.86 | 0.86 | 79 | 1008.0 |
| 20260501210014 | 6 | 355 | 3.2 | 8.0 | 0.00 | 0.86 | 0.86 | 78 | 1007.9 |
| 20260501204509 | 6 | 25 | 3.2 | 11.3 | 0.00 | 0.86 | 0.86 | 81 | 1007.8 |
| 20260501203007 | 6 | 15 | 6.4 | 9.7 | 0.00 | 0.86 | 0.86 | 81 | 1007.7 |
| 20260501201509 | 6 | 36 | 4.8 | 12.9 | 0.00 | 0.86 | 0.86 | 82 | 1007.5 |
| 20260501200025 | 6 | 15 | 4.8 | 9.7 | 0.00 | 0.86 | 0.86 | 85 | 1007.5 |
| 20260501194522 | 6 | 27 | 4.8 | 12.9 | 0.03 | 0.86 | 0.86 | 87 | 1007.6 |
| 20260501193027 | 5 | 360 | 6.4 | 14.5 | 0.03 | 0.86 | 0.86 | 88 | 1007.6 |
| 20260501191525 | 5 | 315 | 6.4 | 16.1 | 0.05 | 0.86 | 0.86 | 90 | 1007.4 |
| 20260501190021 | 5 | 311 | 4.8 | 12.9 | 0.08 | 0.86 | 0.86 | 91 | 1007.2 |
| 20260501184517 | 5 | 313 | 3.2 | 8.0 | 0.08 | 0.84 | 0.84 | 90 | 1007.0 |
| 20260501183019 | 5 | 9 | 4.8 | 11.3 | 0.08 | 0.84 | 0.84 | 89 | 1006.9 |
| 20260501181514 | 5 | 327 | 4.8 | 9.7 | 0.05 | 0.81 | 0.81 | 89 | 1006.8 |
| 20260501180017 | 5 | 337 | 0.0 | 11.3 | 0.03 | 0.79 | 0.79 | 90 | 1006.7 |
| 20260501174520 | 5 | 343 | 1.6 | 6.4 | 0.00 | 0.76 | 0.76 | 90 | 1006.6 |
| 20260501173008 | 5 | 336 | 1.6 | 11.3 | 0.03 | 0.76 | 0.76 | 90 | 1006.5 |
| 20260501171526 | 5 | 325 | 1.6 | 9.7 | 0.03 | 0.76 | 0.76 | 91 | 1006.3 |
| 20260501170025 | 5 | 27 | 3.2 | 8.0 | 0.03 | 0.86 | 0.76 | 90 | 1006.4 |
| 20260501164535 | 5 | 16 | 3.2 | 6.4 | 0.08 | 0.86 | 0.76 | 90 | 1006.3 |
| 20260501163017 | 5 | 311 | 1.6 | 6.4 | 0.10 | 0.84 | 0.71 | 90 | 1006.3 |
| 20260501161522 | 5 | 9 | 3.2 | 9.7 | 0.15 | 0.84 | 0.71 | 91 | 1006.2 |
| 20260501160016 | 5 | 348 | 1.6 | 6.4 | 0.20 | 0.91 | 0.71 | 92 | 1006.2 |